Weather History for KIMT - March, 2012

Change the Weather History Date:

Saturday, March 24, 2012

  Actual Average Record
Temperature  
Mean Temperature 55 °F -  
Max Temperature 66 °F 40 °F 66 °F (1939)
Min Temperature 46 °F 18 °F -13 °F (1974)
Degree Days  
Heating Degree Days 10    
Growing Degree Days 5 (Base 50)    
Moisture  
Dew Point 45 °F    
Average Humidity 78    
Maximum Humidity 100    
Minimum Humidity 56    
Precipitation  
Precipitation 0.00 in - - ()
Sea Level Pressure  
Sea Level Pressure 29.92 in    
Wind  
Wind Speed 3 mph (ENE)    
Max Wind Speed 8 mph    
Max Gust Speed -    
Visibility 10 miles    
Events Rain    
Averages and records for this station are not official NWS values.
T = Trace of Precipitation, MM = Missing Value Source: NWS Daily Summary

Daily Weather History Graph

Daily Weather History Graph

Search for Another Location

Airport or City:

Trip Planner

Search our weather history database for the weather conditions in past years. The results will help you decide how hot, cold, wet, or windy it might be!

Date:

Astronomy

Mar. 24, 2012 Rise Set
Actual Time 6:46 AM CDT 7:11 PM CDT
Civil Twilight 6:17 AM CDT 7:40 PM CDT
Nautical Twilight 5:41 AM CDT 8:16 PM CDT
Astronomical Twilight 5:05 AM CDT 8:52 PM CDT
Moon 7:17 AM CDT (3/24) 9:40 PM CDT (3/24)
Length of Visible Light 13h 23m
Length of Day
12h 24m
Waxing Crescent, 4% of the Moon is Illuminated
Mar 24
Waxing Crescent
Mar 30
First Quarter
Apr 6
Full
Apr 13
Last Quarter
Apr 21
New

Hourly Weather History & Observations

Time (CDT) Temp. Windchill Dew Point Humidity Pressure Visibility Wind Dir Wind Speed Gust Speed Precip Events Conditions
12:03 AM 48.2 °F - 48.2 °F 100% 29.92 in 3.0 mi NNE 4.6 mph - N/A   Overcast
12:54 AM 48.0 °F - 46.9 °F 96% 29.93 in 7.0 mi NNE 5.8 mph - N/A   Overcast
1:32 AM 48.2 °F - 46.4 °F 93% 29.91 in 9.0 mi ENE 3.5 mph - N/A   Overcast
1:54 AM 48.0 °F - 46.0 °F 93% 29.93 in 10.0 mi ENE 4.6 mph - N/A   Overcast
2:08 AM 48.2 °F - 46.4 °F 93% 29.91 in 10.0 mi ENE 5.8 mph - N/A   Overcast
2:54 AM 48.0 °F - 45.0 °F 89% 29.93 in 10.0 mi ENE 5.8 mph - N/A   Overcast
3:16 AM 48.2 °F - 44.6 °F 87% 29.91 in 10.0 mi Calm Calm - N/A   Overcast
3:34 AM 46.4 °F 44.3 °F 44.6 °F 93% 29.91 in 10.0 mi East 4.6 mph - N/A   Overcast
3:54 AM 46.9 °F - 43.0 °F 86% 29.93 in 10.0 mi Calm Calm - N/A   Overcast
4:29 AM 46.4 °F 45.2 °F 42.8 °F 87% 29.90 in 10.0 mi NE 3.5 mph - N/A   Overcast
4:54 AM 46.9 °F - 42.1 °F 83% 29.92 in 10.0 mi Calm Calm - N/A   Overcast
5:54 AM 46.0 °F - 43.0 °F 89% 29.94 in 10.0 mi Calm Calm - N/A   Overcast
6:54 AM 46.0 °F - 42.1 °F 86% 29.93 in 10.0 mi Calm Calm - N/A   Overcast
7:54 AM 46.0 °F - 42.1 °F 86% 29.94 in 10.0 mi Calm Calm - 0.00 in Rain Light Rain
8:54 AM 46.9 °F - 42.1 °F 83% 29.94 in 10.0 mi Calm Calm - 0.00 in   Overcast
9:54 AM 48.0 °F - 42.1 °F 80% 29.95 in 10.0 mi NNE 5.8 mph - N/A   Overcast
10:54 AM 50.0 °F - 43.0 °F 77% 29.94 in 10.0 mi Calm Calm - N/A   Overcast
11:54 AM 53.1 °F - 44.1 °F 71% 29.92 in 10.0 mi Calm Calm - N/A   Overcast
12:54 PM 59.0 °F - 45.0 °F 60% 29.92 in 10.0 mi North 4.6 mph - N/A   Overcast
1:43 PM 59.0 °F - 46.4 °F 63% 29.90 in 10.0 mi East 3.5 mph - N/A   Overcast
1:54 PM 60.1 °F - 46.0 °F 60% 29.91 in 10.0 mi North 3.5 mph - N/A   Overcast
2:43 PM 60.8 °F - 46.4 °F 59% 29.89 in 10.0 mi Calm Calm - N/A   Overcast
2:54 PM 62.1 °F - 46.9 °F 58% 29.90 in 10.0 mi Calm Calm - N/A   Overcast
3:35 PM 64.4 °F - 48.2 °F 56% 29.89 in 10.0 mi NNW 3.5 mph - N/A   Mostly Cloudy
3:54 PM 64.0 °F - 48.9 °F 58% 29.89 in 10.0 mi Variable 3.5 mph - N/A   Partly Cloudy
4:54 PM 63.0 °F - 48.0 °F 58% 29.89 in 10.0 mi ESE 6.9 mph - N/A   Scattered Clouds
5:54 PM 62.1 °F - 48.0 °F 60% 29.89 in 10.0 mi SE 8.1 mph - N/A   Overcast
6:54 PM 57.9 °F - 46.9 °F 67% 29.90 in 10.0 mi South 5.8 mph - N/A   Overcast
7:54 PM 57.0 °F - 48.0 °F 72% 29.93 in 10.0 mi Calm Calm - N/A   Overcast
8:54 PM 55.9 °F - 46.9 °F 72% 29.93 in 10.0 mi Calm Calm - N/A   Mostly Cloudy
9:54 PM 52.0 °F - 46.9 °F 83% 29.94 in 10.0 mi Calm Calm - N/A   Overcast
10:54 PM 52.0 °F - 46.9 °F 83% 29.95 in 10.0 mi Calm Calm - N/A   Mostly Cloudy
11:54 PM 48.0 °F - 46.0 °F 93% 29.95 in 10.0 mi Calm Calm - N/A   Scattered Clouds